SAS87Y EKCH-EHAM

Flight info

Callsign SAS87Y
Flight time 0h 55m
Altitude 38000
Route LANGO DCT POGUG DCT RAXLU DCT BLUFA
Aircraft A20N/M-SDE2E3FGHIRWXY/LB1

Departure

Time 2026-04-30 11:04
Airport Copenhagen Kastrup Airport (EKCH)

Arrival

Time 2026-04-30 11:59
Airport Amsterdam Airport Schiphol (EHAM)
Time Latitude Longitude Altitude Speed Heading
2026-04-30 10:47 55.62881 12.64066 27 ft 0 kts 11°
2026-04-30 10:55 55.62877 12.64065 27 ft 2 kts 11°
2026-04-30 10:55 55.62859 12.64058 27 ft 3 kts 11°
2026-04-30 10:55 55.62841 12.64052 27 ft 3 kts 24°
2026-04-30 10:55 55.62826 12.64034 27 ft 3 kts 65°
2026-04-30 10:56 55.62823 12.64003 27 ft 3 kts 99°
2026-04-30 10:56 55.62825 12.63980 27 ft 1 kts 104°
2026-04-30 10:56 55.62829 12.63950 27 ft 3 kts 104°
2026-04-30 10:56 55.62834 12.63915 27 ft 3 kts 104°
2026-04-30 10:57 55.62839 12.63884 27 ft 2 kts 104°
2026-04-30 10:57 55.62840 12.63879 27 ft 1 kts 104°
2026-04-30 10:59 55.62834 12.63910 27 ft 7 kts 110°
2026-04-30 10:59 55.62802 12.63958 27 ft 6 kts 164°
2026-04-30 10:59 55.62748 12.63928 27 ft 9 kts 212°
2026-04-30 10:59 55.62683 12.63851 27 ft 10 kts 202°
2026-04-30 11:00 55.62633 12.63913 27 ft 10 kts 123°
2026-04-30 11:00 55.62586 12.64039 27 ft 15 kts 123°
2026-04-30 11:00 55.62521 12.64214 27 ft 19 kts 125°
2026-04-30 11:00 55.62445 12.64397 27 ft 15 kts 128°
2026-04-30 11:01 55.62381 12.64444 27 ft 9 kts 194°
2026-04-30 11:01 55.62320 12.64414 26 ft 10 kts 195°
2026-04-30 11:01 55.62244 12.64378 25 ft 13 kts 199°
2026-04-30 11:01 55.62151 12.64303 28 ft 14 kts 205°
2026-04-30 11:02 55.62063 12.64228 27 ft 14 kts 206°
2026-04-30 11:02 55.61975 12.64156 27 ft 14 kts 205°
2026-04-30 11:02 55.61887 12.64081 27 ft 14 kts 203°
2026-04-30 11:02 55.61796 12.64076 27 ft 13 kts 175°
2026-04-30 11:03 55.61708 12.64086 28 ft 12 kts 177°
2026-04-30 11:03 55.61638 12.64082 30 ft 9 kts 205°
2026-04-30 11:03 55.61576 12.63992 29 ft 22 kts 221°
2026-04-30 11:04 55.60654 12.62567 29 ft 151 kts 221°
2026-04-30 11:04 55.59783 12.61229 306 ft 171 kts 227°
2026-04-30 11:04 55.58906 12.59901 1171 ft 162 kts 225°
2026-04-30 11:04 55.58052 12.58584 1849 ft 171 kts 227°
2026-04-30 11:05 55.57079 12.57031 2192 ft 208 kts 228°
2026-04-30 11:05 55.56111 12.54835 2569 ft 242 kts 241°
2026-04-30 11:05 55.55113 12.52320 3442 ft 255 kts 237°
2026-04-30 11:05 55.54057 12.49735 4380 ft 264 kts 238°
2026-04-30 11:06 55.52985 12.47062 5407 ft 270 kts 238°
2026-04-30 11:06 55.51895 12.44305 6393 ft 277 kts 237°
2026-04-30 11:06 55.50783 12.41468 7331 ft 285 kts 237°
2026-04-30 11:06 55.49648 12.38558 8250 ft 291 kts 237°
2026-04-30 11:07 55.48490 12.35588 9183 ft 297 kts 237°
2026-04-30 11:07 55.47309 12.32554 10103 ft 303 kts 237°
2026-04-30 11:07 55.46097 12.29444 10852 ft 316 kts 237°
2026-04-30 11:07 55.44806 12.26130 11253 ft 339 kts 237°
2026-04-30 11:08 55.43443 12.22641 11912 ft 351 kts 236°
2026-04-30 11:08 55.42043 12.19062 12730 ft 359 kts 236°
2026-04-30 11:08 55.40631 12.15457 13568 ft 366 kts 236°
2026-04-30 11:08 55.39172 12.11737 14410 ft 373 kts 236°
2026-04-30 11:09 55.37684 12.07949 15206 ft 378 kts 236°
2026-04-30 11:09 55.36179 12.04123 16006 ft 383 kts 236°
2026-04-30 11:09 55.34650 12.00243 16812 ft 389 kts 236°
2026-04-30 11:09 55.33100 11.96313 17603 ft 394 kts 236°
2026-04-30 11:10 55.31528 11.92336 18376 ft 399 kts 237°
2026-04-30 11:10 55.29937 11.88314 19094 ft 404 kts 237°
2026-04-30 11:10 55.28324 11.84247 19785 ft 408 kts 237°
2026-04-30 11:10 55.26697 11.80151 20504 ft 410 kts 237°
2026-04-30 11:11 55.25060 11.76034 21221 ft 413 kts 237°
2026-04-30 11:11 55.23407 11.71885 21921 ft 417 kts 237°
2026-04-30 11:11 55.21738 11.67703 22611 ft 421 kts 237°
2026-04-30 11:11 55.20051 11.63482 23210 ft 426 kts 237°
2026-04-30 11:12 55.18345 11.59224 23896 ft 427 kts 236°
2026-04-30 11:12 55.16641 11.54977 24563 ft 427 kts 236°
2026-04-30 11:12 55.14928 11.50715 25086 ft 430 kts 236°
2026-04-30 11:12 55.13199 11.46419 25597 ft 433 kts 236°
2026-04-30 11:13 55.11459 11.42105 26101 ft 436 kts 236°
2026-04-30 11:13 55.09708 11.37770 26597 ft 438 kts 236°
2026-04-30 11:13 55.07944 11.33410 27102 ft 441 kts 236°
2026-04-30 11:13 55.06171 11.29036 27575 ft 443 kts 236°
2026-04-30 11:14 55.04410 11.24702 28035 ft 445 kts 236°
2026-04-30 11:14 55.02615 11.20288 28504 ft 448 kts 236°
2026-04-30 11:14 55.00805 11.15848 28952 ft 450 kts 236°
2026-04-30 11:14 54.98981 11.11380 29296 ft 455 kts 236°
2026-04-30 11:15 54.97140 11.06879 29727 ft 457 kts 236°
2026-04-30 11:15 54.95291 11.02366 30155 ft 459 kts 236°
2026-04-30 11:15 54.93429 10.97831 30572 ft 462 kts 236°
2026-04-30 11:15 54.91558 10.93282 30909 ft 464 kts 236°
2026-04-30 11:16 54.89679 10.88721 31314 ft 463 kts 236°
2026-04-30 11:16 54.87800 10.84170 31682 ft 465 kts 236°
2026-04-30 11:16 54.85912 10.79605 32010 ft 467 kts 236°
2026-04-30 11:16 54.84020 10.75039 32450 ft 465 kts 236°
2026-04-30 11:17 54.82128 10.70484 32924 ft 464 kts 236°
2026-04-30 11:17 54.80248 10.65962 33377 ft 462 kts 236°
2026-04-30 11:17 54.78368 10.61450 33783 ft 462 kts 236°
2026-04-30 11:17 54.76486 10.56939 34148 ft 462 kts 236°
2026-04-30 11:18 54.74605 10.52441 34543 ft 461 kts 236°
2026-04-30 11:18 54.70852 10.43489 35238 ft 458 kts 236°
2026-04-30 11:18 54.68979 10.39034 35574 ft 457 kts 236°
2026-04-30 11:19 54.67113 10.34603 35902 ft 456 kts 236°
2026-04-30 11:19 54.65245 10.30177 36213 ft 455 kts 236°
2026-04-30 11:19 54.63384 10.25774 36517 ft 454 kts 236°
2026-04-30 11:19 54.61522 10.21375 36805 ft 453 kts 236°
2026-04-30 11:20 54.59663 10.16992 37096 ft 453 kts 236°
2026-04-30 11:20 54.57804 10.12618 37375 ft 452 kts 236°
2026-04-30 11:20 54.55945 10.08248 37615 ft 452 kts 236°
2026-04-30 11:20 54.54084 10.03884 37871 ft 451 kts 236°
2026-04-30 11:21 54.52227 9.99536 38147 ft 451 kts 236°
2026-04-30 11:21 54.50371 9.95200 38419 ft 450 kts 236°
2026-04-30 11:21 54.46648 9.86520 38509 ft 450 kts 236°
2026-04-30 11:22 54.42929 9.77882 38511 ft 449 kts 235°
2026-04-30 11:22 54.39235 9.69330 38511 ft 449 kts 235°
2026-04-30 11:23 54.35508 9.60732 38500 ft 449 kts 235°
2026-04-30 11:24 54.29913 9.47882 38509 ft 448 kts 235°
2026-04-30 11:24 54.26785 9.40725 38508 ft 448 kts 235°
2026-04-30 11:25 54.21171 9.27932 38499 ft 448 kts 234°
2026-04-30 11:26 54.13666 9.10934 38507 ft 448 kts 234°
2026-04-30 11:26 54.09900 9.02446 38500 ft 449 kts 234°
2026-04-30 11:27 54.06126 8.93971 38501 ft 449 kts 234°
2026-04-30 11:27 54.02351 8.85521 38505 ft 448 kts 234°
2026-04-30 11:28 53.96678 8.72877 38506 ft 449 kts 234°
2026-04-30 11:29 53.92887 8.64463 38510 ft 449 kts 233°
2026-04-30 11:29 53.87204 8.51903 38507 ft 450 kts 233°
2026-04-30 11:30 53.81480 8.39316 38495 ft 450 kts 233°
2026-04-30 11:31 53.77657 8.30945 38497 ft 449 kts 233°
2026-04-30 11:31 53.73832 8.22596 38490 ft 449 kts 233°
2026-04-30 11:32 53.70005 8.14271 38488 ft 449 kts 233°
2026-04-30 11:32 53.66166 8.05947 38483 ft 450 kts 233°
2026-04-30 11:33 53.60394 7.93484 38482 ft 450 kts 233°
2026-04-30 11:33 53.56539 7.85197 38482 ft 450 kts 232°
2026-04-30 11:34 53.52678 7.76923 38468 ft 450 kts 232°
2026-04-30 11:34 53.48814 7.68669 38484 ft 449 kts 232°
2026-04-30 11:35 53.44951 7.60444 38480 ft 449 kts 232°
2026-04-30 11:35 53.41078 7.52227 38350 ft 449 kts 232°
2026-04-30 11:36 53.39140 7.48123 38081 ft 449 kts 232°
2026-04-30 11:36 53.37207 7.44040 37720 ft 445 kts 232°
2026-04-30 11:36 53.35282 7.39977 37151 ft 446 kts 232°
2026-04-30 11:36 53.33346 7.35899 36504 ft 449 kts 231°
2026-04-30 11:37 53.31395 7.31796 35819 ft 452 kts 231°
2026-04-30 11:37 53.29430 7.27671 35128 ft 455 kts 231°
2026-04-30 11:37 53.27450 7.23520 34423 ft 458 kts 231°
2026-04-30 11:37 53.25468 7.19373 33871 ft 455 kts 231°
2026-04-30 11:38 53.23501 7.15262 33362 ft 451 kts 231°
2026-04-30 11:38 53.21571 7.11237 32829 ft 449 kts 231°
2026-04-30 11:38 53.19623 7.07180 32289 ft 447 kts 231°
2026-04-30 11:38 53.17683 7.03146 31766 ft 444 kts 231°
2026-04-30 11:39 53.15753 6.99140 31225 ft 442 kts 230°
2026-04-30 11:39 53.13831 6.95156 30699 ft 441 kts 230°
2026-04-30 11:39 53.11910 6.91181 30094 ft 439 kts 230°
2026-04-30 11:39 53.09998 6.87231 29535 ft 437 kts 230°
2026-04-30 11:40 53.08099 6.83313 28988 ft 434 kts 230°
2026-04-30 11:40 53.06209 6.79421 28461 ft 431 kts 230°
2026-04-30 11:40 53.04330 6.75556 27925 ft 429 kts 230°
2026-04-30 11:40 53.02461 6.71720 27392 ft 427 kts 230°
2026-04-30 11:41 53.00597 6.67898 26841 ft 425 kts 230°
2026-04-30 11:41 52.98736 6.64089 26301 ft 424 kts 230°
2026-04-30 11:41 52.96881 6.60296 25747 ft 423 kts 230°
2026-04-30 11:41 52.95030 6.56519 25212 ft 422 kts 229°
2026-04-30 11:42 52.93178 6.52746 24670 ft 421 kts 229°
2026-04-30 11:42 52.91339 6.49003 24230 ft 417 kts 229°
2026-04-30 11:42 52.89510 6.45286 23738 ft 414 kts 229°
2026-04-30 11:42 52.87699 6.41610 22976 ft 409 kts 229°
2026-04-30 11:43 52.85918 6.38001 22394 ft 400 kts 229°
2026-04-30 11:43 52.84180 6.34475 21832 ft 391 kts 229°
2026-04-30 11:43 52.82584 6.30908 21423 ft 380 kts 232°
2026-04-30 11:43 52.81092 6.27370 20975 ft 373 kts 233°
2026-04-30 11:44 52.79634 6.23887 20434 ft 375 kts 233°
2026-04-30 11:44 52.78148 6.20345 19871 ft 376 kts 233°
2026-04-30 11:44 52.76652 6.16786 19315 ft 378 kts 232°
2026-04-30 11:44 52.75148 6.13217 18773 ft 379 kts 232°
2026-04-30 11:45 52.73640 6.09645 18169 ft 380 kts 232°
2026-04-30 11:45 52.72128 6.06069 17589 ft 379 kts 232°
2026-04-30 11:45 52.70619 6.02505 17005 ft 378 kts 232°
2026-04-30 11:45 52.69114 5.98957 16483 ft 377 kts 232°
2026-04-30 11:46 52.67618 5.95432 15988 ft 373 kts 232°
2026-04-30 11:46 52.66134 5.91941 15507 ft 370 kts 232°
2026-04-30 11:46 52.64656 5.88474 15031 ft 367 kts 232°
2026-04-30 11:46 52.63190 5.85035 14477 ft 365 kts 232°
2026-04-30 11:47 52.61752 5.81664 13829 ft 358 kts 232°
2026-04-30 11:47 52.60325 5.78328 13134 ft 353 kts 232°
2026-04-30 11:47 52.58935 5.75077 12616 ft 343 kts 231°
2026-04-30 11:47 52.57580 5.71912 12122 ft 334 kts 231°
2026-04-30 11:48 52.56257 5.68829 11629 ft 328 kts 231°
2026-04-30 11:48 52.54946 5.65780 11315 ft 322 kts 231°
2026-04-30 11:48 52.53676 5.62826 11042 ft 315 kts 230°
2026-04-30 11:48 52.52411 5.59886 10642 ft 314 kts 231°
2026-04-30 11:49 52.51399 5.56706 10164 ft 317 kts 250°
2026-04-30 11:49 52.51122 5.53136 9734 ft 315 kts 266°
2026-04-30 11:49 52.51129 5.49545 9357 ft 314 kts 269°
2026-04-30 11:49 52.51177 5.45976 8990 ft 313 kts 269°
2026-04-30 11:50 52.51223 5.42416 8614 ft 311 kts 269°
2026-04-30 11:50 52.51261 5.38893 8246 ft 307 kts 268°
2026-04-30 11:50 52.51293 5.35407 7884 ft 305 kts 268°
2026-04-30 11:50 52.51322 5.31934 7520 ft 303 kts 268°
2026-04-30 11:51 52.51347 5.28488 7158 ft 301 kts 268°
2026-04-30 11:51 52.51370 5.25061 6797 ft 299 kts 268°
2026-04-30 11:51 52.51392 5.21660 6424 ft 297 kts 268°
2026-04-30 11:51 52.51413 5.18274 6066 ft 296 kts 267°
2026-04-30 11:52 52.51432 5.14900 5715 ft 295 kts 267°
2026-04-30 11:52 52.51450 5.11586 5372 ft 294 kts 267°
2026-04-30 11:52 52.51467 5.08232 5006 ft 293 kts 266°
2026-04-30 11:52 52.51484 5.04901 4645 ft 291 kts 266°
2026-04-30 11:53 52.51500 5.01585 4296 ft 289 kts 266°
2026-04-30 11:53 52.51515 4.98292 3957 ft 287 kts 265°
2026-04-30 11:53 52.51526 4.95023 3611 ft 286 kts 265°
2026-04-30 11:53 52.51537 4.91762 3259 ft 285 kts 265°
2026-04-30 11:54 52.51548 4.88516 2922 ft 284 kts 265°
2026-04-30 11:54 52.51558 4.85274 2569 ft 284 kts 266°
2026-04-30 11:54 52.51566 4.82042 2160 ft 282 kts 268°
2026-04-30 11:54 52.51574 4.78881 2001 ft 269 kts 269°
2026-04-30 11:55 52.51412 4.75941 1985 ft 248 kts 247°
2026-04-30 11:55 52.50477 4.73851 2044 ft 212 kts 210°
2026-04-30 11:55 52.49258 4.72787 2014 ft 191 kts 193°
2026-04-30 11:55 52.48000 4.72281 1995 ft 182 kts 178°
2026-04-30 11:56 52.46736 4.72160 1989 ft 183 kts 176°
2026-04-30 11:56 52.45503 4.72052 1924 ft 172 kts 176°
2026-04-30 11:56 52.44330 4.71938 1677 ft 166 kts 175°
2026-04-30 11:56 52.43212 4.71830 1441 ft 155 kts 175°
2026-04-30 11:57 52.42197 4.71736 1284 ft 140 kts 175°
2026-04-30 11:57 52.41266 4.71652 1084 ft 129 kts 175°
2026-04-30 11:57 52.40381 4.71573 897 ft 127 kts 175°
2026-04-30 11:57 52.39495 4.71493 717 ft 128 kts 175°
2026-04-30 11:58 52.38609 4.71412 554 ft 127 kts 174°
2026-04-30 11:58 52.37724 4.71331 376 ft 128 kts 174°
2026-04-30 11:58 52.36844 4.71251 199 ft 126 kts 175°
2026-04-30 11:58 52.35973 4.71162 51 ft 125 kts 175°
2026-04-30 11:59 52.35164 4.71098 19 ft 101 kts 184°
2026-04-30 11:59 52.34601 4.71043 22 ft 59 kts 182°
2026-04-30 11:59 52.34318 4.71118 17 ft 34 kts 154°
2026-04-30 11:59 52.34161 4.71248 20 ft 24 kts 155°
2026-04-30 12:00 52.34000 4.71271 16 ft 25 kts 183°
2026-04-30 12:00 52.33826 4.71258 18 ft 25 kts 181°
2026-04-30 12:00 52.33648 4.71240 16 ft 26 kts 184°
2026-04-30 12:00 52.33468 4.71224 18 ft 26 kts 182°
2026-04-30 12:01 52.33293 4.71208 16 ft 22 kts 177°
2026-04-30 12:01 52.33182 4.71331 17 ft 20 kts 129°
2026-04-30 12:01 52.33083 4.71516 14 ft 23 kts 132°
2026-04-30 12:01 52.32969 4.71729 7 ft 27 kts 132°
2026-04-30 12:02 52.32852 4.71943 2 ft 21 kts 127°
2026-04-30 12:02 52.32842 4.72174 1 ft 20 kts 89°
2026-04-30 12:02 52.32770 4.72352 -2 ft 22 kts 133°
2026-04-30 12:02 52.32668 4.72537 3 ft 20 kts 138°
2026-04-30 12:03 52.32552 4.72705 0 ft 23 kts 140°
2026-04-30 12:03 52.32321 4.73030 2 ft 20 kts 140°
2026-04-30 12:03 52.32221 4.73168 7 ft 17 kts 141°
2026-04-30 12:04 52.32144 4.73276 11 ft 13 kts 140°
2026-04-30 12:04 52.32084 4.73365 14 ft 9 kts 120°
2026-04-30 12:04 52.32065 4.73440 19 ft 8 kts 109°
2026-04-30 12:04 52.32057 4.73555 20 ft 12 kts 94°
2026-04-30 12:05 52.32050 4.73714 22 ft 16 kts 94°
2026-04-30 12:05 52.32039 4.73926 19 ft 22 kts 97°
2026-04-30 12:05 52.32030 4.74176 14 ft 13 kts 120°
2026-04-30 12:05 52.31963 4.74194 14 ft 9 kts 188°
2026-04-30 12:06 52.31880 4.74181 14 ft 15 kts 183°
2026-04-30 12:06 52.31758 4.74171 17 ft 19 kts 183°
2026-04-30 12:06 52.31612 4.74157 19 ft 24 kts 184°
2026-04-30 12:06 52.31433 4.74140 19 ft 27 kts 183°
2026-04-30 12:07 52.31241 4.74123 17 ft 28 kts 180°
2026-04-30 12:07 52.31058 4.74106 14 ft 25 kts 184°
2026-04-30 12:07 52.30894 4.74091 15 ft 22 kts 184°
2026-04-30 12:07 52.30746 4.74076 15 ft 21 kts 183°
2026-04-30 12:08 52.30608 4.74062 18 ft 19 kts 179°
2026-04-30 12:08 52.30478 4.74063 17 ft 18 kts 164°
2026-04-30 12:08 52.30135 4.74645 27 ft 394 kts 130°
2026-04-30 12:08 52.29919 4.75046 6 ft 2 kts 130°
2026-04-30 12:09 52.29899 4.75086 9 ft 10 kts 129°
2026-04-30 12:09 52.29842 4.75198 16 ft 10 kts 121°
2026-04-30 12:09 52.29832 4.75268 17 ft 4 kts 92°
2026-04-30 12:09 52.29835 4.75307 20 ft 5 kts 72°
2026-04-30 12:10 52.29850 4.75353 17 ft 10 kts 63°
2026-04-30 12:10 52.29893 4.75473 16 ft 12 kts 58°
2026-04-30 12:10 52.29946 4.75608 16 ft 11 kts 57°
2026-04-30 12:10 52.29977 4.75689 14 ft 14 kts 57°
2026-04-30 12:11 52.30033 4.75836 13 ft 16 kts 60°
2026-04-30 12:11 52.30093 4.75992 13 ft 17 kts 58°
2026-04-30 12:11 52.30153 4.76149 15 ft 14 kts 58°
2026-04-30 12:11 52.30197 4.76261 16 ft 10 kts 57°
2026-04-30 12:12 52.30231 4.76352 16 ft 9 kts 58°
2026-04-30 12:12 52.30262 4.76434 16 ft 8 kts 58°
2026-04-30 12:12 52.30303 4.76540 17 ft 12 kts 58°
2026-04-30 12:12 52.30373 4.76573 13 ft 11 kts 335°
2026-04-30 12:13 52.30441 4.76505 8 ft 12 kts 327°
2026-04-30 12:13 52.30511 4.76433 5 ft 12 kts 329°
2026-04-30 12:13 52.30554 4.76437 4 ft 5 kts 56°
2026-04-30 12:13 52.30569 4.76473 4 ft 2 kts 56°
2026-04-30 12:14 52.30572 4.76481 4 ft 1 kts 57°
2026-04-30 12:14 52.30573 4.76483 4 ft 0 kts 57°